VCP839 EGJB-EGBB

Flight info

Callsign VCP839
Flight time 0h 46m
Altitude 15000
Route ORIST Y110 THRED Z171 SAM Q41 SILVA
Aircraft DH8D/M-SDE2E3FGRY/H

Departure

Time 2026-04-27 19:12
Airport Guernsey Airport (EGJB)

Arrival

Time 2026-04-27 19:58
Airport Birmingham Airport (EGBB)
Time Latitude Longitude Altitude Speed Heading
2026-04-27 18:45 49.43256 -2.59622 335 ft 0 kts 178°
2026-04-27 19:01 49.43260 -2.59622 335 ft 2 kts 178°
2026-04-27 19:02 49.43275 -2.59623 335 ft 2 kts 178°
2026-04-27 19:02 49.43290 -2.59623 335 ft 2 kts 178°
2026-04-27 19:02 49.43305 -2.59624 335 ft 2 kts 178°
2026-04-27 19:02 49.43320 -2.59624 335 ft 2 kts 187°
2026-04-27 19:03 49.43334 -2.59618 335 ft 2 kts 205°
2026-04-27 19:03 49.43346 -2.59606 335 ft 2 kts 221°
2026-04-27 19:03 49.43356 -2.59588 335 ft 2 kts 238°
2026-04-27 19:03 49.43361 -2.59575 336 ft 2 kts 249°
2026-04-27 19:04 49.43364 -2.59549 336 ft 1 kts 268°
2026-04-27 19:04 49.43364 -2.59548 336 ft 0 kts 268°
2026-04-27 19:06 49.43364 -2.59550 336 ft 0 kts 268°
2026-04-27 19:07 49.43364 -2.59569 336 ft 2 kts 268°
2026-04-27 19:07 49.43362 -2.59628 335 ft 8 kts 268°
2026-04-27 19:07 49.43356 -2.59732 333 ft 10 kts 254°
2026-04-27 19:07 49.43344 -2.59849 331 ft 11 kts 268°
2026-04-27 19:08 49.43343 -2.59977 329 ft 12 kts 267°
2026-04-27 19:08 49.43339 -2.60113 326 ft 13 kts 267°
2026-04-27 19:08 49.43335 -2.60262 322 ft 14 kts 267°
2026-04-27 19:08 49.43331 -2.60421 317 ft 15 kts 268°
2026-04-27 19:09 49.43330 -2.60596 312 ft 16 kts 272°
2026-04-27 19:09 49.43343 -2.60766 309 ft 15 kts 280°
2026-04-27 19:09 49.43363 -2.60932 305 ft 15 kts 272°
2026-04-27 19:09 49.43362 -2.61092 303 ft 14 kts 268°
2026-04-27 19:10 49.43361 -2.61203 302 ft 5 kts 268°
2026-04-27 19:10 49.43361 -2.61222 302 ft 0 kts 270°
2026-04-27 19:11 49.43390 -2.61307 301 ft 9 kts 311°
2026-04-27 19:11 49.43444 -2.61360 301 ft 8 kts 356°
2026-04-27 19:11 49.43467 -2.61312 301 ft 10 kts 86°
2026-04-27 19:11 49.43472 -2.61105 303 ft 40 kts 88°
2026-04-27 19:12 49.43496 -2.60182 324 ft 126 kts 86°
2026-04-27 19:12 49.43526 -2.58646 600 ft 152 kts 88°
2026-04-27 19:12 49.43510 -2.57013 1266 ft 159 kts 88°
2026-04-27 19:12 49.43512 -2.55422 2140 ft 149 kts 84°
2026-04-27 19:13 49.43557 -2.53776 2726 ft 163 kts 83°
2026-04-27 19:13 49.43614 -2.51979 3225 ft 179 kts 83°
2026-04-27 19:13 49.43778 -2.50080 3886 ft 179 kts 64°
2026-04-27 19:13 49.44643 -2.48816 4511 ft 180 kts 21°
2026-04-27 19:14 49.45828 -2.48298 5242 ft 180 kts 16°
2026-04-27 19:14 49.47055 -2.47801 5791 ft 184 kts 15°
2026-04-27 19:14 49.48291 -2.47312 6351 ft 186 kts 15°
2026-04-27 19:14 49.49556 -2.46817 6900 ft 189 kts 14°
2026-04-27 19:15 49.50823 -2.46325 7461 ft 191 kts 13°
2026-04-27 19:15 49.52134 -2.45819 8001 ft 194 kts 13°
2026-04-27 19:15 49.53434 -2.45319 8540 ft 196 kts 12°
2026-04-27 19:15 49.54754 -2.44813 9060 ft 198 kts 12°
2026-04-27 19:16 49.56102 -2.44297 9580 ft 202 kts 12°
2026-04-27 19:16 49.57006 -2.43951 9947 ft 202 kts 12°
2026-04-27 19:16 49.58843 -2.43249 10489 ft 214 kts 11°
2026-04-27 19:16 49.60341 -2.42681 10774 ft 227 kts 11°
2026-04-27 19:17 49.61910 -2.42085 11147 ft 236 kts 11°
2026-04-27 19:17 49.63491 -2.41482 11648 ft 239 kts 12°
2026-04-27 19:17 49.65108 -2.40865 12178 ft 240 kts 11°
2026-04-27 19:17 49.66724 -2.40247 12623 ft 243 kts 11°
2026-04-27 19:18 49.68356 -2.39624 13093 ft 244 kts 11°
2026-04-27 19:18 49.69971 -2.38869 13542 ft 248 kts 23°
2026-04-27 19:18 49.71297 -2.37118 13911 ft 255 kts 45°
2026-04-27 19:18 49.72440 -2.35026 14317 ft 258 kts 46°
2026-04-27 19:19 49.73593 -2.32906 14733 ft 259 kts 47°
2026-04-27 19:19 49.74764 -2.30753 15074 ft 264 kts 47°
2026-04-27 19:19 49.75985 -2.28520 15187 ft 278 kts 47°
2026-04-27 19:19 49.77256 -2.26199 15214 ft 291 kts 47°
2026-04-27 19:20 49.78592 -2.23759 15225 ft 302 kts 47°
2026-04-27 19:20 49.79956 -2.21269 15247 ft 312 kts 47°
2026-04-27 19:20 49.81383 -2.18660 15219 ft 320 kts 47°
2026-04-27 19:20 49.82828 -2.16016 15228 ft 326 kts 47°
2026-04-27 19:21 49.84306 -2.13309 15225 ft 330 kts 47°
2026-04-27 19:21 49.85804 -2.10565 15222 ft 335 kts 47°
2026-04-27 19:21 49.87302 -2.07817 15218 ft 338 kts 47°
2026-04-27 19:21 49.88821 -2.05026 15218 ft 341 kts 47°
2026-04-27 19:22 49.90350 -2.02217 15227 ft 342 kts 47°
2026-04-27 19:22 49.91872 -1.99418 15219 ft 343 kts 47°
2026-04-27 19:22 49.93407 -1.96590 15210 ft 339 kts 47°
2026-04-27 19:22 49.94923 -1.93796 15212 ft 337 kts 47°
2026-04-27 19:23 49.96408 -1.91059 15211 ft 335 kts 47°
2026-04-27 19:23 49.97901 -1.88302 15210 ft 333 kts 47°
2026-04-27 19:23 49.99512 -1.85716 15183 ft 326 kts 33°
2026-04-27 19:23 50.01534 -1.84421 15223 ft 315 kts
2026-04-27 19:24 50.03695 -1.84012 15215 ft 314 kts
2026-04-27 19:24 50.05872 -1.83693 15213 ft 313 kts
2026-04-27 19:24 50.08048 -1.83390 15214 ft 314 kts
2026-04-27 19:24 50.10216 -1.83092 15214 ft 315 kts
2026-04-27 19:25 50.12415 -1.82791 15212 ft 317 kts
2026-04-27 19:25 50.14593 -1.82328 15207 ft 320 kts
2026-04-27 19:25 50.16766 -1.81397 15214 ft 322 kts 13°
2026-04-27 19:25 50.18905 -1.80418 15216 ft 323 kts 13°
2026-04-27 19:26 50.21069 -1.79427 15218 ft 324 kts 13°
2026-04-27 19:26 50.23215 -1.78446 15216 ft 324 kts 13°
2026-04-27 19:26 50.25382 -1.77459 15215 ft 325 kts 13°
2026-04-27 19:26 50.27526 -1.76484 15218 ft 325 kts 13°
2026-04-27 19:27 50.29701 -1.75497 15215 ft 325 kts 13°
2026-04-27 19:27 50.31871 -1.74512 15213 ft 325 kts 13°
2026-04-27 19:27 50.34066 -1.73516 15216 ft 325 kts 13°
2026-04-27 19:27 50.36229 -1.72535 15214 ft 325 kts 13°
2026-04-27 19:28 50.38392 -1.71554 15217 ft 326 kts 13°
2026-04-27 19:28 50.40581 -1.70559 15217 ft 326 kts 13°
2026-04-27 19:28 50.42754 -1.69572 15214 ft 327 kts 12°
2026-04-27 19:28 50.44950 -1.68573 15218 ft 327 kts 13°
2026-04-27 19:29 50.47127 -1.67582 15216 ft 328 kts 13°
2026-04-27 19:29 50.49302 -1.66586 15217 ft 328 kts 13°
2026-04-27 19:29 50.51457 -1.65300 15229 ft 330 kts 19°
2026-04-27 19:29 50.53554 -1.63843 15224 ft 331 kts 20°
2026-04-27 19:30 50.55664 -1.62368 15210 ft 331 kts 20°
2026-04-27 19:30 50.57764 -1.60901 15223 ft 331 kts 20°
2026-04-27 19:30 50.59858 -1.59438 15206 ft 331 kts 20°
2026-04-27 19:30 50.61950 -1.57978 15215 ft 331 kts 20°
2026-04-27 19:31 50.64045 -1.56516 15217 ft 330 kts 20°
2026-04-27 19:31 50.66166 -1.55036 15207 ft 330 kts 20°
2026-04-27 19:31 50.68244 -1.53585 15206 ft 330 kts 19°
2026-04-27 19:31 50.70344 -1.52119 15199 ft 329 kts 19°
2026-04-27 19:32 50.72434 -1.50659 15232 ft 329 kts 20°
2026-04-27 19:32 50.74531 -1.49193 15222 ft 330 kts 19°
2026-04-27 19:32 50.76627 -1.47728 15224 ft 330 kts 19°
2026-04-27 19:32 50.78719 -1.46262 15230 ft 330 kts 19°
2026-04-27 19:33 50.80812 -1.44796 15226 ft 330 kts 19°
2026-04-27 19:33 50.82230 -1.43801 15221 ft 330 kts 19°
2026-04-27 19:33 50.85032 -1.41835 15221 ft 330 kts 19°
2026-04-27 19:33 50.87132 -1.40359 15223 ft 330 kts 19°
2026-04-27 19:34 50.89203 -1.38902 15227 ft 330 kts 19°
2026-04-27 19:34 50.91326 -1.37408 15223 ft 330 kts 19°
2026-04-27 19:34 50.93400 -1.35946 15222 ft 330 kts 19°
2026-04-27 19:34 50.95514 -1.34504 15214 ft 329 kts 17°
2026-04-27 19:35 50.97681 -1.33475 15226 ft 326 kts 11°
2026-04-27 19:35 50.99881 -1.32567 15225 ft 325 kts 11°
2026-04-27 19:35 51.02061 -1.31668 15220 ft 326 kts 11°
2026-04-27 19:35 51.04268 -1.30756 15222 ft 326 kts 11°
2026-04-27 19:36 51.06448 -1.29850 15224 ft 326 kts 11°
2026-04-27 19:36 51.08637 -1.28938 15222 ft 326 kts 11°
2026-04-27 19:36 51.10831 -1.28022 15217 ft 325 kts 11°
2026-04-27 19:36 51.12999 -1.27112 15226 ft 325 kts 11°
2026-04-27 19:37 51.15189 -1.26192 15229 ft 326 kts 11°
2026-04-27 19:37 51.17374 -1.25273 15236 ft 326 kts 11°
2026-04-27 19:37 51.19581 -1.24343 15233 ft 326 kts 11°
2026-04-27 19:37 51.21767 -1.23420 15234 ft 326 kts 11°
2026-04-27 19:38 51.23946 -1.22500 15234 ft 326 kts 11°
2026-04-27 19:38 51.26123 -1.21579 15234 ft 326 kts 11°
2026-04-27 19:38 51.28311 -1.20653 15233 ft 326 kts 11°
2026-04-27 19:38 51.30500 -1.19725 15229 ft 326 kts 11°
2026-04-27 19:39 51.32705 -1.18789 15235 ft 326 kts 11°
2026-04-27 19:39 51.34886 -1.17862 15237 ft 325 kts 11°
2026-04-27 19:39 51.37050 -1.16941 15244 ft 325 kts 11°
2026-04-27 19:39 51.39240 -1.16009 15245 ft 325 kts 11°
2026-04-27 19:40 51.41435 -1.15074 15238 ft 325 kts 11°
2026-04-27 19:40 51.43617 -1.14142 15260 ft 325 kts 11°
2026-04-27 19:40 51.45797 -1.13211 15239 ft 325 kts 11°
2026-04-27 19:40 51.47979 -1.12279 15236 ft 325 kts 12°
2026-04-27 19:41 51.50149 -1.11350 15241 ft 324 kts 12°
2026-04-27 19:41 51.52325 -1.10418 15245 ft 324 kts 12°
2026-04-27 19:41 51.54523 -1.09476 15246 ft 324 kts 12°
2026-04-27 19:41 51.56696 -1.08543 15245 ft 324 kts 12°
2026-04-27 19:42 51.58855 -1.07616 15248 ft 324 kts 12°
2026-04-27 19:42 51.61036 -1.06682 15244 ft 324 kts 11°
2026-04-27 19:42 51.63238 -1.05967 15245 ft 323 kts
2026-04-27 19:42 51.65458 -1.05402 15235 ft 318 kts
2026-04-27 19:43 51.67601 -1.04863 15233 ft 308 kts
2026-04-27 19:43 51.69672 -1.04343 15234 ft 299 kts
2026-04-27 19:43 51.71702 -1.03832 15244 ft 292 kts
2026-04-27 19:43 51.73683 -1.03330 15248 ft 286 kts
2026-04-27 19:44 51.75632 -1.02835 15134 ft 285 kts
2026-04-27 19:44 51.77611 -1.02332 14876 ft 288 kts
2026-04-27 19:44 51.79596 -1.01826 14572 ft 293 kts
2026-04-27 19:44 51.81612 -1.01310 14242 ft 297 kts
2026-04-27 19:45 51.83653 -1.00902 13803 ft 296 kts 358°
2026-04-27 19:45 51.85583 -1.01775 13496 ft 286 kts 330°
2026-04-27 19:45 51.87166 -1.03610 13193 ft 281 kts 323°
2026-04-27 19:45 51.88706 -1.05551 12881 ft 277 kts 323°
2026-04-27 19:46 51.90208 -1.07467 12553 ft 274 kts 323°
2026-04-27 19:46 51.91714 -1.09392 12243 ft 271 kts 323°
2026-04-27 19:46 51.93179 -1.11267 11931 ft 268 kts 323°
2026-04-27 19:46 51.94633 -1.13130 11649 ft 267 kts 323°
2026-04-27 19:47 51.96080 -1.14986 11315 ft 265 kts 323°
2026-04-27 19:47 51.97523 -1.16838 11019 ft 263 kts 323°
2026-04-27 19:47 51.98934 -1.18649 10705 ft 262 kts 323°
2026-04-27 19:47 52.00351 -1.20471 10407 ft 259 kts 323°
2026-04-27 19:48 52.01756 -1.22278 10144 ft 257 kts 323°
2026-04-27 19:48 52.03159 -1.24086 9837 ft 257 kts 323°
2026-04-27 19:48 52.04549 -1.25877 9516 ft 255 kts 323°
2026-04-27 19:48 52.05924 -1.27650 9231 ft 253 kts 323°
2026-04-27 19:49 52.07302 -1.29428 8947 ft 252 kts 323°
2026-04-27 19:49 52.08669 -1.31192 8681 ft 252 kts 323°
2026-04-27 19:49 52.10035 -1.32958 8414 ft 252 kts 323°
2026-04-27 19:49 52.11430 -1.34760 7913 ft 256 kts 323°
2026-04-27 19:50 52.12777 -1.36509 7574 ft 246 kts 324°
2026-04-27 19:50 52.14095 -1.38221 7217 ft 237 kts 324°
2026-04-27 19:50 52.15343 -1.39851 6930 ft 226 kts 324°
2026-04-27 19:50 52.16551 -1.41429 6666 ft 214 kts 324°
2026-04-27 19:51 52.17681 -1.42905 6423 ft 205 kts 325°
2026-04-27 19:51 52.18805 -1.44352 6185 ft 212 kts 325°
2026-04-27 19:51 52.19983 -1.45861 5756 ft 214 kts 325°
2026-04-27 19:51 52.21102 -1.47330 5653 ft 201 kts 324°
2026-04-27 19:52 52.22149 -1.48763 5532 ft 196 kts 324°
2026-04-27 19:52 52.22835 -1.49715 5479 ft 193 kts 324°
2026-04-27 19:52 52.24206 -1.51598 5217 ft 195 kts 328°
2026-04-27 19:52 52.25341 -1.52773 4949 ft 195 kts 334°
2026-04-27 19:53 52.27591 -1.55175 4358 ft 190 kts 331°
2026-04-27 19:53 52.28681 -1.56360 4077 ft 186 kts 332°
2026-04-27 19:53 52.29733 -1.57514 3811 ft 182 kts 332°
2026-04-27 19:54 52.30766 -1.58651 3578 ft 177 kts 332°
2026-04-27 19:54 52.31773 -1.59755 3398 ft 174 kts 333°
2026-04-27 19:54 52.32781 -1.60858 3158 ft 175 kts 333°
2026-04-27 19:54 52.33786 -1.61963 2928 ft 175 kts 333°
2026-04-27 19:55 52.34798 -1.63079 2692 ft 176 kts 333°
2026-04-27 19:55 52.35804 -1.64191 2443 ft 172 kts 333°
2026-04-27 19:55 52.36763 -1.65272 2174 ft 159 kts 332°
2026-04-27 19:55 52.37623 -1.66235 1970 ft 144 kts 334°
2026-04-27 19:56 52.38459 -1.67135 1831 ft 141 kts 335°
2026-04-27 19:56 52.39287 -1.68024 1646 ft 145 kts 334°
2026-04-27 19:56 52.40129 -1.68951 1455 ft 149 kts 333°
2026-04-27 19:56 52.41007 -1.69928 1254 ft 154 kts 331°
2026-04-27 19:57 52.41885 -1.70929 1046 ft 152 kts 331°
2026-04-27 19:57 52.42756 -1.71896 811 ft 148 kts 331°
2026-04-27 19:57 52.43590 -1.72820 606 ft 145 kts 330°
2026-04-27 19:57 52.44424 -1.73738 418 ft 145 kts 330°
2026-04-27 19:58 52.45214 -1.74609 330 ft 100 kts 327°
2026-04-27 19:58 52.45602 -1.75039 324 ft 51 kts 325°
2026-04-27 19:58 52.45857 -1.75325 318 ft 38 kts 325°
2026-04-27 19:58 52.46047 -1.75536 312 ft 28 kts 326°
2026-04-27 19:59 52.46134 -1.75615 310 ft 9 kts
2026-04-27 19:59 52.46174 -1.75561 310 ft 9 kts 55°
2026-04-27 19:59 52.46211 -1.75474 311 ft 7 kts 55°
2026-04-27 19:59 52.46208 -1.75388 311 ft 8 kts 141°
2026-04-27 20:00 52.46134 -1.75308 313 ft 17 kts 145°
2026-04-27 20:00 52.46016 -1.75178 316 ft 21 kts 144°
2026-04-27 20:00 52.45900 -1.75047 319 ft 19 kts 144°
2026-04-27 20:00 52.45790 -1.74926 322 ft 18 kts 148°
2026-04-27 20:01 52.45681 -1.74805 324 ft 19 kts 145°
2026-04-27 20:01 52.45585 -1.74699 326 ft 14 kts 144°
2026-04-27 20:01 52.45513 -1.74619 326 ft 10 kts 145°
2026-04-27 20:01 52.45463 -1.74536 327 ft 11 kts 120°
2026-04-27 20:02 52.45419 -1.74395 327 ft 16 kts 117°
2026-04-27 20:02 52.45360 -1.74250 327 ft 14 kts 145°
2026-04-27 20:02 52.45278 -1.74159 328 ft 15 kts 144°
2026-04-27 20:02 52.45179 -1.74049 330 ft 18 kts 145°
2026-04-27 20:03 52.45072 -1.73928 332 ft 16 kts 144°
2026-04-27 20:03 52.45047 -1.73800 332 ft 11 kts 54°
2026-04-27 20:03 52.45098 -1.73725 333 ft 9 kts 40°
2026-04-27 20:03 52.45141 -1.73626 333 ft 8 kts 56°
2026-04-27 20:04 52.45164 -1.73572 334 ft 2 kts 56°
2026-04-27 20:04 52.45174 -1.73548 334 ft 3 kts 55°
2026-04-27 20:04 52.45195 -1.73496 335 ft 5 kts 55°
2026-04-27 20:04 52.45206 -1.73471 335 ft 2 kts 54°
2026-04-27 20:05 52.45211 -1.73444 336 ft 1 kts 109°
2026-04-27 20:05 52.45202 -1.73429 336 ft 4 kts 139°
2026-04-27 20:05 52.45186 -1.73408 337 ft 2 kts 139°
2026-04-27 20:05 52.45176 -1.73394 337 ft 2 kts 139°
2026-04-27 20:06 52.45170 -1.73386 337 ft 0 kts 138°